• In Czech Republic
  • List of Countries
  • For 7 days
  • Water Temperature
  • Satellite Maps
  • Weather Map
  • Weather Widgets
  • user-avatar
    Login

    Hourly Weather Skarszewice

    Today, 23 October, Tuesday

    Time Temperature Precipitation Wind Pressure Humidity
    00:00 +5°C° 0 mm 6 mps 759 mmHg 81%
    01:00 +5°C° 0 mm 6 mps 759 mmHg 81%
    02:00 +5°C° 0.2 mm 7 mps 758 mmHg 80%
    03:00 +5°C° 0.2 mm 8 mps 756 mmHg 80%
    04:00 +5°C° 0.2 mm 9 mps 755 mmHg 79%
    05:00 +5°C° 1.3 mm 10 mps 753 mmHg 80%
    06:00 +5°C° 1.3 mm 10 mps 752 mmHg 82%
    07:00 +4°C° 1.3 mm 11 mps 751 mmHg 83%
    08:00 +6°C° 1.9 mm 11 mps 749 mmHg 85%
    09:00 +6°C° 1.9 mm 11 mps 748 mmHg 86%
    10:00 +7°C° 1.9 mm 12 mps 747 mmHg 87%
    11:00 +8°C° 2 mm 12 mps 746 mmHg 86%
    12:00 +9°C° 2 mm 11 mps 745 mmHg 84%
    13:00 +9°C° 2 mm 11 mps 744 mmHg 83%
    14:00 +9°C° 0.7 mm 11 mps 744 mmHg 80%
    15:00 +9°C° 0.7 mm 11 mps 744 mmHg 77%
    16:00 +9°C° 0.7 mm 12 mps 743 mmHg 75%
    17:00 +9°C° 0.3 mm 11 mps 743 mmHg 74%
    18:00 +9°C° 0.3 mm 11 mps 743 mmHg 74%
    19:00 +9°C° 0.3 mm 11 mps 743 mmHg 74%
    20:00 +8°C° 0.2 mm 11 mps 742 mmHg 73%
    21:00 +8°C° 0.2 mm 11 mps 742 mmHg 72%
    22:00 +8°C° 0.2 mm 10 mps 741 mmHg 71%
    23:00 +7°C° 0.4 mm 11 mps 741 mmHg 69%

    Tomorrow, 24 October, Wednesday

    Time Temperature Precipitation Wind Pressure Humidity
    00:00 +7°C° 0.4 mm 11 mps 741 mmHg 67%
    01:00 +7°C° 0.4 mm 12 mps 741 mmHg 65%
    02:00 +6°C° 0.2 mm 11 mps 742 mmHg 62%
    03:00 +6°C° 0.2 mm 10 mps 743 mmHg 60%
    04:00 +5°C° 0.2 mm 10 mps 744 mmHg 57%
    05:00 +5°C° 0 mm 10 mps 744 mmHg 56%
    06:00 +3°C° 0 mm 9 mps 745 mmHg 55%
    07:00 +3°C° 0 mm 9 mps 745 mmHg 54%
    08:00 +5°C° 0 mm 10 mps 746 mmHg 52%
    09:00 +5°C° 0 mm 10 mps 747 mmHg 50%
    10:00 +6°C° 0 mm 11 mps 748 mmHg 47%
    11:00 +6°C° 0 mm 11 mps 749 mmHg 46%
    12:00 +7°C° 0 mm 11 mps 749 mmHg 45%
    13:00 +7°C° 0 mm 11 mps 750 mmHg 45%
    14:00 +7°C° 0 mm 10 mps 750 mmHg 46%
    15:00 +6°C° 0 mm 9 mps 751 mmHg 48%
    16:00 +6°C° 0 mm 8 mps 751 mmHg 50%
    17:00 +6°C° 0 mm 7 mps 752 mmHg 53%
    18:00 +5°C° 0 mm 7 mps 752 mmHg 56%
    19:00 +5°C° 0 mm 6 mps 752 mmHg 58%
    20:00 +5°C° 0 mm 6 mps 752 mmHg 61%
    21:00 +5°C° 0 mm 5 mps 752 mmHg 64%
    22:00 +5°C° 0 mm 5 mps 752 mmHg 67%
    23:00 +5°C° 0 mm 5 mps 752 mmHg 70%

    Day after tomorrow, 25 October, Thursday

    Time Temperature Precipitation Wind Pressure Humidity
    00:00 +5°C° 0 mm 5 mps 752 mmHg 74%
    01:00 +5°C° 0 mm 5 mps 751 mmHg 77%
    02:00 +4°C° 0.6 mm 6 mps 750 mmHg 81%
    03:00 +5°C° 0.6 mm 6 mps 749 mmHg 85%
    04:00 +5°C° 0.6 mm 7 mps 748 mmHg 89%
    05:00 +6°C° 0.7 mm 8 mps 747 mmHg 87%
    06:00 +8°C° 0.7 mm 9 mps 746 mmHg 85%
    07:00 +9°C° 0.7 mm 10 mps 745 mmHg 83%
    08:00 +9°C° 0.2 mm 10 mps 745 mmHg 80%
    09:00 +9°C° 0.2 mm 10 mps 745 mmHg 77%
    10:00 +8°C° 0.2 mm 10 mps 745 mmHg 74%
    11:00 +8°C° 0.1 mm 10 mps 746 mmHg 73%
    12:00 +8°C° 0.1 mm 10 mps 746 mmHg 72%
    13:00 +8°C° 0.1 mm 10 mps 746 mmHg 71%
    14:00 +8°C° 0.1 mm 9 mps 746 mmHg 71%
    15:00 +8°C° 0.1 mm 9 mps 747 mmHg 71%
    16:00 +9°C° 0.1 mm 8 mps 747 mmHg 71%
    17:00 +9°C° 0 mm 8 mps 747 mmHg 73%
    18:00 +8°C° 0 mm 7 mps 748 mmHg 76%
    19:00 +8°C° 0 mm 7 mps 748 mmHg 78%
    20:00 +8°C° 0 mm 6 mps 748 mmHg 79%
    21:00 +7°C° 0 mm 6 mps 748 mmHg 80%
    22:00 +7°C° 0 mm 5 mps 749 mmHg 81%
    23:00 +7°C° 0.1 mm 5 mps 749 mmHg 81%

    26 October, Friday

    Time Temperature Precipitation Wind Pressure Humidity
    00:00 +7°C° 0.1 mm 5 mps 749 mmHg 81%
    01:00 +7°C° 0.1 mm 5 mps 749 mmHg 81%
    02:00 +7°C° 0.1 mm 5 mps 748 mmHg 82%
    03:00 +7°C° 0.1 mm 5 mps 748 mmHg 82%
    04:00 +7°C° 0.1 mm 5 mps 748 mmHg 83%
    05:00 +6°C° 0.1 mm 5 mps 748 mmHg 84%
    06:00 +6°C° 0.1 mm 5 mps 748 mmHg 85%
    07:00 +6°C° 0.1 mm 4 mps 748 mmHg 87%
    08:00 +6°C° 0 mm 4 mps 748 mmHg 85%
    09:00 +7°C° 0 mm 4 mps 747 mmHg 83%
    10:00 +7°C° 0 mm 4 mps 747 mmHg 80%
    11:00 +8°C° 0.1 mm 4 mps 747 mmHg 80%
    12:00 +8°C° 0.1 mm 5 mps 746 mmHg 80%
    13:00 +8°C° 0.1 mm 5 mps 746 mmHg 80%
    14:00 +8°C° 0.2 mm 5 mps 745 mmHg 82%
    15:00 +9°C° 0.2 mm 5 mps 745 mmHg 85%
    16:00 +9°C° 0.2 mm 5 mps 744 mmHg 87%
    17:00 +9°C° 0.1 mm 5 mps 744 mmHg 87%
    18:00 +9°C° 0.1 mm 6 mps 743 mmHg 86%
    19:00 +9°C° 0.1 mm 6 mps 743 mmHg 86%
    20:00 +9°C° 0.1 mm 6 mps 743 mmHg 86%
    21:00 +8°C° 0.1 mm 6 mps 742 mmHg 86%
    22:00 +8°C° 0.1 mm 6 mps 742 mmHg 85%
    23:00 +8°C° 0.1 mm 7 mps 742 mmHg 85%

    27 October, Saturday

    Time Temperature Precipitation Wind Pressure Humidity
    00:00 +8°C° 0.1 mm 7 mps 741 mmHg 84%
    01:00 +8°C° 0.1 mm 7 mps 741 mmHg 84%
    02:00 +6°C° 0.1 mm 7 mps 741 mmHg 82%
    03:00 +6°C° 0.1 mm 7 mps 740 mmHg 80%
    04:00 +5°C° 0.1 mm 7 mps 740 mmHg 78%
    05:00 +4°C° 0 mm 7 mps 740 mmHg 79%
    06:00 +4°C° 0 mm 8 mps 740 mmHg 80%
    07:00 +2°C° 0 mm 8 mps 740 mmHg 82%
    08:00 +4°C° 0 mm 8 mps 740 mmHg 77%
    09:00 +5°C° 0 mm 9 mps 741 mmHg 72%
    10:00 +5°C° 0 mm 9 mps 741 mmHg 67%
    11:00 +6°C° 0 mm 9 mps 741 mmHg 63%
    12:00 +6°C° 0 mm 10 mps 741 mmHg 59%
    13:00 +7°C° 0 mm 10 mps 741 mmHg 55%
    14:00 +7°C° 0.1 mm 9 mps 741 mmHg 56%
    15:00 +6°C° 0.1 mm 9 mps 742 mmHg 56%
    16:00 +6°C° 0.1 mm 8 mps 742 mmHg 56%
    17:00 +5°C° 0.1 mm 8 mps 742 mmHg 58%
    18:00 +5°C° 0.1 mm 7 mps 742 mmHg 60%
    19:00 +4°C° 0.1 mm 7 mps 742 mmHg 62%
    20:00 +4°C° 0.1 mm 7 mps 742 mmHg 65%
    21:00 +4°C° 0.1 mm 6 mps 743 mmHg 68%
    22:00 +4°C° 0.1 mm 6 mps 743 mmHg 71%
    23:00 +3°C° 0 mm 5 mps 743 mmHg 73%

    28 October, Sunday

    Time Temperature Precipitation Wind Pressure Humidity
    00:00 +3°C° 0 mm 5 mps 743 mmHg 75%
    01:00 +3°C° 0 mm 5 mps 743 mmHg 78%
    02:00 +4°C° 0 mm 4 mps 743 mmHg 80%
    03:00 +3°C° 0 mm 4 mps 743 mmHg 81%
    04:00 +3°C° 0 mm 3 mps 743 mmHg 83%
    05:00 +2°C° 0.1 mm 3 mps 743 mmHg 85%
    06:00 +2°C° 0.1 mm 3 mps 743 mmHg 87%
    07:00 +2°C° 0.1 mm 3 mps 743 mmHg 89%
    08:00 +3°C° 0.1 mm 3 mps 744 mmHg 85%
    09:00 +3°C° 0.1 mm 3 mps 744 mmHg 80%
    10:00 +4°C° 0.1 mm 4 mps 744 mmHg 75%
    11:00 +5°C° 0.1 mm 4 mps 745 mmHg 72%
    12:00 +6°C° 0.1 mm 4 mps 745 mmHg 68%
    13:00 +6°C° 0.1 mm 5 mps 745 mmHg 65%
    14:00 +6°C° 0.1 mm 4 mps 745 mmHg 67%
    15:00 +6°C° 0.1 mm 4 mps 746 mmHg 68%
    16:00 +5°C° 0.1 mm 4 mps 746 mmHg 69%
    17:00 +5°C° 0.2 mm 4 mps 747 mmHg 72%
    18:00 +5°C° 0.2 mm 5 mps 747 mmHg 74%
    19:00 +5°C° 0.2 mm 5 mps 748 mmHg 76%
    20:00 +5°C° 0.4 mm 5 mps 748 mmHg 78%
    21:00 +5°C° 0.4 mm 5 mps 748 mmHg 81%
    22:00 +5°C° 0.4 mm 5 mps 749 mmHg 83%
    23:00 +5°C° 0.5 mm 5 mps 749 mmHg 84%

    29 October, Monday

    Time Temperature Precipitation Wind Pressure Humidity
    00:00 +4°C° 0.5 mm 4 mps 749 mmHg 85%
    01:00 +4°C° 0.5 mm 4 mps 750 mmHg 87%
    02:00 +4°C° 0.7 mm 4 mps 750 mmHg 88%
    03:00 +4°C° 0.7 mm 3 mps 750 mmHg 89%
    04:00 +4°C° 0.7 mm 2 mps 751 mmHg 90%
    05:00 +3°C° 0.7 mm 3 mps 751 mmHg 90%
    06:00 +3°C° 0.7 mm 3 mps 752 mmHg 90%
    07:00 +2°C° 0.7 mm 3 mps 752 mmHg 90%
    08:00 +3°C° 0.3 mm 3 mps 752 mmHg 87%
    09:00 +3°C° 0.3 mm 3 mps 753 mmHg 85%
    10:00 +4°C° 0.3 mm 3 mps 753 mmHg 82%
    11:00 +4°C° 0.1 mm 3 mps 753 mmHg 79%
    12:00 +5°C° 0.1 mm 3 mps 754 mmHg 76%
    13:00 +5°C° 0.1 mm 3 mps 754 mmHg 73%
    14:00 +5°C° 0.1 mm 3 mps 754 mmHg 74%
    15:00 +6°C° 0.1 mm 2 mps 753 mmHg 75%
    16:00 +5°C° 0.1 mm 2 mps 753 mmHg 77%
    17:00 +5°C° 0 mm 2 mps 753 mmHg 78%
    18:00 +4°C° 0 mm 2 mps 754 mmHg 80%
    19:00 +3°C° 0 mm 2 mps 754 mmHg 82%
    20:00 +3°C° 0 mm 2 mps 754 mmHg 81%
    21:00 +3°C° 0 mm 2 mps 754 mmHg 81%
    22:00 +3°C° 0 mm 2 mps 754 mmHg 80%
    23:00 +4°C° 0 mm 1 mps 754 mmHg 80%
    Show more